Regional Weather Roundup
Issued by NWS

Home | Current Version | Previous Version | Graphics & Text | Print | Product List | Glossary On
Versions: 1 2 3 4 5 6 7 8 9 10 11 12 13 14 15 16 17 18 19 20 21 22 23 24 25 26 27 28 29 30 31 32 33 34 35 36 37 38 39 40 41 42 43 44 45 46 47 48 49 50
000
ASUS43 KIND 151959
RWRIN

WEATHER ROUNDUP FOR INDIANA
NATIONAL WEATHER SERVICE INDIANAPOLIS IN
300 PM EST FRI DEC 15 2017

NOTE: "FAIR" INDICATES FEW OR NO CLOUDS BELOW 12,000 FEET WITH NO
SIGNIFICANT WEATHER AND/OR OBSTRUCTIONS TO VISIBILITY.

* - STATION DOES NOT REPORT WEATHER SUCH AS PRECIPITATION OR FOG.

+ - STATION NOT QUALITY CONTROLLED BY THE NATIONAL WEATHER SERVICE.
    USE DATA WITH CAUTION...ESPECIALLY DEWPOINT AND RELATIVE
    HUMIDITY OBSERVATIONS.

INZ001>003-010>013-019-020-152100-
NORTHWEST INDIANA

CITY           SKY/WX    TMP DP  RH WIND       PRES   REMARKS
KNOX *+        SUNNY     32  18  55 NW14      29.92S WCI  22
LA PORTE +     PTSUNNY   29  17  60 W9        29.91S WCI  21
MICHIGAN CITY+ CLOUDY    32  18  55 W14G23    29.91S WCI  22
MONTICELLO +   PTSUNNY   33  14  45 W18G25    29.94S WCI  22
RENSSELAER +   CLOUDY    34  10  37 W18G24    29.95S WCI  23

$$

LMZ046-743>745-152100-
SOUTHERN LAKE MICHIGAN

STATION/POSITION TIME  TEMP    WIND        PRES    WAVE
                       AIR SEA DIR/SP/G            HT
                 (UTC) (F)     (DEG/KT/KT) (MB)    (FT)
BURNS HARBOR     1940   31     280/ 17/ 23 1013.2S
MICHIGAN CITY    1930   30     260/ 24/ 27   N/A

$$

INZ004-005-014>016-021>024-152100-
NORTH CENTRAL INDIANA

CITY           SKY/WX    TMP DP  RH WIND       PRES   REMARKS
ELKHART        PTSUNNY   28  16  59 W17G29    29.88S WCI  16
GOSHEN         PTSUNNY   27  19  72 W16       29.89R WCI  15
SOUTH BEND     PTSUNNY   27  17  66 W18G24    29.89S WCI  14
WARSAW +       MOSUNNY   28  18  64 W13       29.90S WCI  18

$$

INZ006>009-017-018-025>027-152100-
NORTHEAST INDIANA

CITY           SKY/WX    TMP DP  RH WIND       PRES   REMARKS
AUBURN +       CLOUDY    28  19  69 W16G25    29.89R WCI  17
FORT WAYNE     FLURRIES  28  19  69 W23       29.91R WCI  14
KENDALLVILLE + CLOUDY    26  19  73 W17G23    29.87S WCI  13

$$

INZ028-029-035-036-043>045-051>053-152100-
WEST CENTRAL INDIANA

CITY           SKY/WX    TMP DP  RH WIND       PRES   REMARKS
GREENCASTLE +  CLOUDY    32  19  59 W8        30.01S WCI  25
LAFAYETTE      MOSUNNY   34  16  47 W16G22    29.97S WCI  24
TERRE HAUTE    CLOUDY    34  20  56 W12       30.03F WCI  25

$$

INZ030>032-037>040-046>048-054>057-064-065-152100-
CENTRAL INDIANA

CITY           SKY/WX    TMP DP  RH WIND       PRES   REMARKS
ANDERSON       CLOUDY    30  19  64 W16G25    29.96S WCI  19
COLUMBUS       CLOUDY    32  19  59 W12G18    30.02S WCI  23
FRANKFORT +    MOSUNNY   35  18  50 W22G28    29.97S WCI  23
GREENWOOD *+   CLOUDY    34  24  65 W12G18    29.99F WCI  25
INDIANAPOLIS   CLOUDY    31  20  63 W18       29.99S WCI  19
-EAGLE CREEK   CLOUDY    31  19  61 W16G24    29.98S WCI  20
KOKOMO +       MOSUNNY   32  17  54 W23       29.94S WCI  19
MT COMFORT *+  CLOUDY    30  23  74 W16G22    29.97S WCI  19
SHELBYVILLE    CLOUDY    32  19  58 W14       29.98F WCI  22

$$

INZ033-034-041-042-049-050-058-059-152100-
EAST CENTRAL INDIANA

CITY           SKY/WX    TMP DP  RH WIND       PRES   REMARKS
MUNCIE         CLOUDY    31  19  61 W16G25    29.94S WCI  20
RICHMOND +     CLOUDY    28  21  74 W22G29    29.95S WCI  15

$$

INZ060-061-067>069-081>083-085>088-152100-
SOUTHWEST INDIANA

CITY           SKY/WX    TMP DP  RH WIND       PRES   REMARKS
EVANSVILLE     CLOUDY    39  24  55 SW10      30.08F WCI  32
HUNTINGBURG +  CLOUDY    37  23  56 SW12      30.07S WCI  29

$$

INZ062-063-066-070>080-084-089>092-152100-
SOUTH CENTRAL AND SOUTHEAST INDIANA

CITY           SKY/WX    TMP DP  RH WIND       PRES   REMARKS
BLOOMINGTON    CLOUDY    32  21  64 W12       30.01F WCI  23
SEYMOUR +      CLOUDY    36  21  55 W10       30.03S WCI  28

$$





USA.gov is the U.S. government's official web portal to all federal, state and local government web resources and services.